Location: *
(46.0770°N, 1.6444°E)
Time: 15:09:44
(UTC+00:00)

USA 234 - Pass Details

Date: 16 September 2019
Orbit: 1103 x 1105 km, 123.0° (Epoch: 06 October)

Event Time Altitude Azimuth Distance (km) Brightness Sun altitude
Exits shadow 21:42:12 48° 31° (NNE) 1,417 3.8 -34.0°
Maximum altitude 21:42:32 48° 22° (NNE) 1,410 3.8 -34.1°
Drops below altitude 10° 21:48:45 10° 311° (NW) 2,967 6.3 -34.7°
Sets 21:51:19 0° 306° (NW) 3,927 7.1 -35.0°
